Welcome to the New NWS' Forecast!
Most changes are behind the scenes, but click here for differences you might notice.

Regional Weather Roundup (RWR)

Issued by National Weather Service (NWS)

                            
263 
ASUS42 KTBW 221316
RWRFL 
FLORIDA REGIONAL WEATHER ROUNDUP
NATIONAL WEATHER SERVICE TAMPA BAY RUSKIN FL
900 AM EDT SAT SEP 22 2018

NOTE: "FAIR" INDICATES FEW OR NO CLOUDS BELOW 12,000 FEET WITH NO
SIGNIFICANT WEATHER AND/OR OBSTRUCTIONS TO VISIBILITY.

FLZ001>010-012>015-112-114-115-221400-
PANHANDLE FLORIDA
  
CITY           SKY/WX    TMP DP  RH WIND       PRES   REMARKS
PENSACOLA      FAIR      79  74  84 NE6       30.03R                  
PENSACOLA NAS  RAIN      75  72  88 SW10      30.03F FOG              
MILTON NAS     FAIR      75  74  96 E3        30.05                   
CRESTVIEW      FAIR      75  72  90 E5        30.06S                  
VALPARAISO     MOSUNNY   77  73  87 NE8       30.03S                  
PANAMA CITY    FAIR      77  72  84 NE5       30.04R                  
APALACHICOLA   FAIR      78  77  96 NE6       30.03S                  

STATION/POSITION SKY/WX   TEMP    WIND        PRES    WAVE   SWELL
                          AIR SEA DIR/SP/G            HT/PER HT/PER
                          (F)     (DEG/KT/KT) (MB)    (FT/S) (FT/S)
30.1N   87.6W              84     130/  8/ 12 1016.3R   2/ 4   2/ 5
29.2N   88.2W                 86  130/ 10/ 12 1015.9R   2/ 6   2/ 6
28.8N   86.0W              83 86  100/  8/ 10   N/A     2/ 6   2/ 6
PANAMA CITY BEAC           78 86   80/  4/  9 1017.7R
TOWER C                    83      90/  7/  8 1017.4R

$$
FLZ011-016>038-118-127-128-134-139-239-221400-
NORTH FLORIDA
  
CITY           SKY/WX    TMP DP  RH WIND       PRES   REMARKS
MARIANNA       FAIR      75  73  93 NE7       30.06R                  
TALLAHASSEE    FAIR      77  73  87 E6        30.07R                  
PERRY          FAIR      77  73  88 E3        30.08R                  
LIVE OAK       SUNNY     75  75 100 CALM      30.08S                  
CROSS CITY     FAIR      76  73  90 E7        30.07                   
LAKE CITY      FAIR      73  72  94 NE3       30.08S                  
GAINESVILLE    FAIR      80  72  76 NE5       30.10R                  
PALATKA        FAIR      77  77 100 CALM      30.07S                  
MAYPORT NAS    FAIR      81  75  82 N3        30.07S                  
JACKSONVILLE   FAIR      76  73  91 N5        30.07S                  
JAX NAS        FAIR      80  74  81 N6        30.08S                  
JAX CECIL      SUNNY     77  73  88 N5        30.08R                  
ST AUGUSTINE   PTSUNNY   81  75  82 N6        30.08S                  
PALM COAST     CLOUDY    79  73  83 CALM      30.07R                  

STATION/POSITION SKY/WX   TEMP    WIND        PRES    WAVE   SWELL
                          AIR SEA DIR/SP/G            HT/PER HT/PER
                          (F)     (DEG/KT/KT) (MB)    (FT/S) (FT/S)
SHELL POINT      NOT AVBL
KEATON BEACH               73      60/  5/  7 1018.0R
CEDAR KEY                  78      60/  9/ 10 1018.2R
FERNANDINA                 81 85   80/  2/  3 1019.3S
30.7N   81.3W                 85                N/A     3/11   2/11
MAYPORT                    79 85  360/  3/  4 1018.7F
31.4N   80.9W              81 84   90/  8/ 10 1018.6R   3/10   2/10
ST AUGUSTINE               82 83   70/  8/ 10 1018.4R

$$
FLZ040-043>046-052-053-057-058-063-144-221400-
INTERIOR CENTRAL FLORIDA
  
CITY           SKY/WX    TMP DP  RH WIND       PRES   REMARKS
OCALA          FAIR      77  73  87 NE5       30.07F                  
LEESBURG       FAIR      80  76  87 NE8       30.07R                  
SANFORD        FAIR      78  73  84 NE10      30.06R                  
ORLANDO EXEC   FAIR      80  74  81 N9        30.06R                  
ORLANDO INTL   FAIR      79  76  90 N7        30.06R                  
KISSIMMEE      FAIR      80  75  84 N6        30.06R                  
WINTER HAVEN   FAIR      80  75  84 NE8       30.06R                  
LAKELAND       SUNNY     79  73  83 NE6       30.06R                  
SEBRING        FAIR      80  73  81 NE3       30.03F                  
OKEECHOBEE       N/A     77  73  88 NE5       30.02S                  

$$
FLZ041-047-054-059-064-141-147-221400-
EAST CENTRAL FLORIDA
  
CITY           SKY/WX    TMP DP  RH WIND       PRES   REMARKS
ORMOND BEACH   PTSUNNY   77  73  88 CALM      30.07R                  
DAYTONA BEACH  PTSUNNY   77  77 100 S6        30.06S                  
DELAND         CLOUDY    75  73  94 CALM      30.07R                  
NEW SMYRNA BEA RAIN      75  75 100 SE8       30.08S                  
TITUSVILLE     PTSUNNY   81  79  94 N6        30.05S                  
MELBOURNE      FAIR      82  72  71 NE8       30.03S                  
VERO BEACH     LGT RAIN  77  75  93 N6        30.03S                  
FT PIERCE      CLOUDY    80  77  90 N6        30.02S                  
STUART         MOSUNNY   81  75  83 CALM      30.03S                  

STATION/POSITION SKY/WX   TEMP    WIND        PRES    WAVE   SWELL
                          AIR SEA DIR/SP/G            HT/PER HT/PER
                          (F)     (DEG/KT/KT) (MB)    (FT/S) (FT/S)
28.5N   80.2W              83      70/ 12/ 14 1017.3F
28.9N   78.5W              82 85   60/  8/ 12 1018.1R
TRIDENT PIER                       50/  8/ 11   N/A
28.4N   80.5W                 85                N/A     3/11   2/11
27.5N   80.2W                 83                N/A     4/11   2/11

$$
FLZ050-056-061-142-242-148-248-149-249-151-251-155-255-
160-260-221400-
WEST CENTRAL FLORIDA
  
CITY           SKY/WX    TMP DP  RH WIND       PRES   REMARKS
CRYSTAL RIVER  FAIR      77  73  88 NE5       30.07R                  
BROOKSVILLE    FAIR      79  74  84 NE6       30.06R                  
CLEARWATER AIR FAIR      79  72  78 E5        30.05R                  
ST PETE CLEARW FAIR      80  75  84 NE8       30.05R                  
TAMPA INTL     FAIR      81  73  76 NE5       30.05R                  
TAMPA EXEC     FAIR      79  73  83 NE7       30.06R                  
PLANT CITY     FAIR      79  73  83 NE6       30.07S                  
PETER O KNIGHT   N/A    N/A N/A N/A NE8       30.05R                  
ST PETERSBURG  FAIR      81  75  82 NE10      30.03R                  
SARASOTA       FAIR      80  75  84 NE8       30.02R                  
VENICE         FAIR      81  75  83 NE9       30.03S                  

STATION/POSITION SKY/WX   TEMP    WIND        PRES    WAVE   SWELL
                          AIR SEA DIR/SP/G            HT/PER HT/PER
                          (F)     (DEG/KT/KT) (MB)    (FT/S) (FT/S)
CLEARWATER BEACH           79 88   60/  6/  8 1017.5R
MIDDLE TAMPA BAY           79      90/  9/ 11 1017.4R
VENICE                     77 85   50/  7/  9   N/A

$$
FLZ066-069-070-075>078-162-262-165-265-221400-
SOUTHWEST FLORIDA AND KEYS
  
CITY           SKY/WX    TMP DP  RH WIND       PRES   REMARKS
PUNTA GORDA    FAIR      81  74  79 NE8       30.04R                  
FT MYERS       FAIR      79  76  90 NE8       30.00R                  
SOUTHWEST INTL FAIR      79  76  90 NE10      30.00S                  
NAPLES         FAIR      79  75  87 NE6       29.98S                  
MARCO ISLAND   FAIR      79  76  90 MISG      30.00R                  
IMMOKALEE        N/A     81  77  89 NE9       30.00S                  
KEY WEST NAS   PTSUNNY   84  75  74 E3        29.98S                  
KEY WEST INTL  FAIR      86  76  71 VRB3      29.98S HX  96           

STATION/POSITION SKY/WX   TEMP    WIND        PRES    WAVE   SWELL
                          AIR SEA DIR/SP/G            HT/PER HT/PER
                          (F)     (DEG/KT/KT) (MB)    (FT/S) (FT/S)
NAPLES                     78 86   60/  3/  9 1015.3R
26.0N   85.6W                      70/  8/ 14 1015.7R   2/ 4   2/ 8
DRY TORTUGAS               83      80/  6/  7 1015.3R
SAND KEY                   83                 1015.3R
SOMBRERO KEY               83      70/  5/  8 1014.3R
LONG KEY                   84 87  100/  9/ 12 1015.1S

$$
FLZ067-068-071>074-168-172>174-221400-
SOUTHEAST FLORIDA 
  
CITY           SKY/WX    TMP DP  RH WIND       PRES   REMARKS
W PALM BEACH   FAIR      82  76  81 CALM      30.01S                  
BOCA RATON     MOSUNNY   81  73  78 CALM      30.01R                  
FT LAUDER-EXEC FAIR      84  77  79 N7        30.00S                  
FT LAUDERDALE  FAIR      82  78  88 N5        29.99S                  
POMPANO BEACH  FAIR      85  73  67 N7        30.00S                  
PEMBROKE PINES FAIR      85  77  77 N5        30.01S HX  95           
OPA LOCKA      FAIR      81  75  82 N3        30.00S                  
MIAMI          PTSUNNY   83  77  82 N6        29.99S                  
WEST KENDALL   FAIR      84  75  74 NE8       29.99S                  
HOMESTEAD      NOT AVBL                                               

STATION/POSITION SKY/WX   TEMP    WIND        PRES    WAVE   SWELL
                          AIR SEA DIR/SP/G            HT/PER HT/PER
                          (F)     (DEG/KT/KT) (MB)    (FT/S) (FT/S)
PORT EVERGLADES            85      70/  4/  5 1016.0R
VIRGINIA KEY               86 88   40/  3/  6 1015.3R
LAKE WORTH                 82 86              1017.2S
FOWEY ROCKS                84 85   60/  7/  8 1016.3R
SETTLEMENT POINT           84     130/  2/  2 1016.7R

$$